Weather History for La Junta, CO

Change the Weather History Date:

Thursday, April 10, 2014

  Actual Average Record
Temperature  
Mean Temperature 61 °F 51 °F  
Max Temperature 73 °F 67 °F 92 °F (1977)
Min Temperature 48 °F 35 °F 12 °F (2013)
Degree Days  
Heating Degree Days 4 14  
Month to date heating degree days 146 154  
Since 1 July heating degree days 4869 4902  
Cooling Degree Days 0 0  
Month to date cooling degree days 0 0  
Year to date cooling degree days 0 1  
Growing Degree Days 10 (Base 50)    
Moisture  
Dew Point 30 °F    
Average Humidity 38    
Maximum Humidity 56    
Minimum Humidity 20    
Precipitation  
Precipitation 0.00 in 0.04 in 0.25 in (1953)
Month to date precipitation 0.36 0.34  
Year to date precipitation 1.10 1.80  
Sea Level Pressure  
Sea Level Pressure 29.85 in    
Wind  
Wind Speed 15 mph (ESE)    
Max Wind Speed 24 mph    
Max Gust Speed 34 mph    
Visibility 10 miles    
Events      
T = Trace of Precipitation, MM = Missing Value Source: NWS Daily Summary

Daily Weather History Graph

Daily Weather History Graph

Search for Another Location

Airport:

Trip Planner

Search our weather history database for the weather conditions in past years. The results will help you decide how hot, cold, wet, or windy it might be!

Date:

Astronomy

Apr. 10, 2014 Rise Set
Actual Time 6:25 AM MDT 7:25 PM MDT
Civil Twilight 5:58 AM MDT 7:52 PM MDT
Nautical Twilight 5:26 AM MDT 8:24 PM MDT
Astronomical Twilight 4:53 AM MDT 8:57 PM MDT
Moon 3:15 PM MDT (4/10) 3:45 AM MDT (4/10)
Length of Visible Light 13h 53m
Length of Day
12h 59m
Waxing Gibbous, 80% of the Moon is Illuminated
Apr 10
Waxing Gibbous
Apr 15
Full
Apr 22
Last Quarter
Apr 29
New
May 6
First Quarter

Hourly Weather History & Observations

Time (MDT) Temp. Dew Point Humidity Pressure Visibility Wind Dir Wind Speed Gust Speed Precip Events Conditions
1:53 AM 54.0 °F 23.0 °F 30% 29.70 in 10.0 mi WSW 13.8 mph - N/A   Clear
2:53 AM 54.0 °F 23.0 °F 30% 29.70 in 10.0 mi WSW 17.3 mph - N/A   Clear
3:53 AM 48.9 °F 24.1 °F 38% 29.72 in 10.0 mi West 13.8 mph - N/A   Clear
4:36 AM 55.9 °F 21.0 °F 26% 29.91 in 10.0 mi North 17.3 mph 33.4 mph N/A   Clear
4:53 AM 52.0 °F 21.9 °F 31% 29.76 in 10.0 mi NNW 8.1 mph - N/A   Clear
5:53 AM 52.0 °F 26.1 °F 37% 29.80 in 10.0 mi NNE 17.3 mph - N/A   Clear
8:53 AM 54.0 °F 32.0 °F 43% 29.97 in 10.0 mi ENE 18.4 mph - N/A   Clear
9:53 AM 57.0 °F 32.0 °F 39% 29.97 in 10.0 mi ENE 13.8 mph - N/A   Clear
10:53 AM 57.9 °F 32.0 °F 37% 29.98 in 6.0 mi Variable 6.9 mph - N/A   Haze
11:53 AM 60.1 °F 30.9 °F 33% 29.95 in 10.0 mi ESE 8.1 mph - N/A   Clear
12:53 PM 63.0 °F 32.0 °F 31% 29.91 in 10.0 mi ESE 8.1 mph - N/A   Clear
1:53 PM 64.9 °F 32.0 °F 29% 29.88 in 10.0 mi ESE 9.2 mph - N/A   Clear
2:53 PM 68.0 °F 30.9 °F 25% 29.84 in 10.0 mi SE 12.7 mph 19.6 mph N/A   Clear
3:53 PM 71.1 °F 30.0 °F 22% 29.80 in 10.0 mi SE 20.7 mph 26.5 mph N/A   Clear
4:53 PM 73.0 °F 30.0 °F 20% 29.76 in 10.0 mi SE 18.4 mph - N/A   Clear
5:53 PM 72.0 °F 30.0 °F 21% 29.75 in 10.0 mi ESE 21.9 mph - N/A   Clear
6:53 PM 69.1 °F 30.0 °F 23% 29.78 in 10.0 mi ESE 20.7 mph - N/A   Clear
7:53 PM 64.0 °F 33.1 °F 31% 29.82 in 10.0 mi East 20.7 mph - N/A   Partly Cloudy
8:53 PM 59.0 °F 35.1 °F 41% 29.87 in 10.0 mi East 19.6 mph - N/A   Clear
9:53 PM 57.0 °F 36.0 °F 45% 29.93 in 10.0 mi ENE 16.1 mph - N/A   Clear
10:53 PM 55.0 °F 35.1 °F 47% 29.92 in 10.0 mi East 19.6 mph - N/A   Clear
11:53 PM 54.0 °F 34.0 °F 47% 29.91 in 10.0 mi ESE 20.7 mph - N/A   Clear